LFBLLFBH

Guest
Details From LFBL - Limoges Bellegarde
To LFBH - La Rochelle Laleu
Flight Number -
Tags generated
Created
Modified
Stats Distance 101 nm / 187 km
Max Altitude 3,200 ft / 975 m
Waypoints 3
Social Downloads 1
Likes 0
Share VATSIM

Download

Looking for another format? Having issues loading an existing format? Contact us
Advertisement - Login to hide

Notes

Basic altitude profile: - Ascent Rate: 2500ft/min - Ascent Speed: 250kts - Cruise Altitude: 7500ft - Cruise Speed: 420kts - Descent Rate: 1500ft/min - Descent Speed: 250kts

Route

LFBL ADILU LFBH

ID Type Via Altitude Latitude Longitude Leg Dist Tot Dist Heading (true) Name
O LFBL APT - 0 ft / 0 m 45.86190˚ 1.18137˚ - 0 nm - Limoges Bellegarde
ADILU FIX - 3,200 ft / 975 m 46.12417˚ -0.83944˚ 85 nm 85 nm 281° / 280° -
O LFBH APT - 0 ft / 0 m 46.17924˚ -1.19641˚ 15 nm 100 nm 283° / 282° La Rochelle Laleu

Altitude Profile

Advertisement - Login to hide

LFBL

Details ICAO LFBL (LIG)
Name Limoges Bellegarde
Region France
Timezone Europe/Paris (UTC+2.0)
Stats Elevation 1,300 ft / 396 m (AMSL)
Location 45.861896° 1.181368°
Runways 1
Magnetic Variation 0.478° E

METAR

LFBL 222100Z AUTO 07004KT 040V100 CAVOK 15/12 Q1017 NOSIG

Decode

TAF

TAF LFBL 221700Z 2218/2318 VRB03KT 9999 SCT030TCU TEMPO 2218/2221 4000 SHRA SCT050CB PROB40 TEMPO 2218/2220 VRB15G25KT TSRA BECMG 2221/2223 CAVOK PROB30 TEMPO 2303/2306 3000 BR BKN002 BECMG 2310/2312 SCT030TCU PROB30 TEMPO 2312/2316 30015KT 4000 SHRA SCT040CB

Decode

Departure Runways

ID Width Length Bearing (true) Bearing (mag) Surface Threshold Offset Overrun Length
03 148 ft / 45 m 8,202 ft / 2,500 m 33.16° 32.68° Asphalt 0 ft / 0 m 0 ft / 0 m
21 148 ft / 45 m 8,202 ft / 2,500 m 213.18° 212.70° Asphalt 196 ft / 60 m 0 ft / 0 m

LFBH

Details ICAO LFBH (LRH)
Name La Rochelle Laleu
Region France
Timezone Europe/Paris (UTC+2.0)
Stats Elevation 74 ft / 23 m (AMSL)
Location 46.179245° -1.196410°
Runways 1
Magnetic Variation 0.245° W

METAR

LFBH 222100Z AUTO 31005KT CAVOK 17/14 Q1016

Decode

TAF

Not found

Destination Runways

ID Width Length Bearing (true) Bearing (mag) Surface Threshold Offset Overrun Length
10 148 ft / 45 m 7,383 ft / 2,250 m 92.43° 92.67° Asphalt 1,033 ft / 315 m 0 ft / 0 m
28 148 ft / 45 m 7,383 ft / 2,250 m 272.45° 272.69° Asphalt 1,532 ft / 467 m 0 ft / 0 m

Approach Navaids

Runway Type Ident Frequency Range Bearing (true) Bearing (mag) Slope Elevation
28 Localiser RL 109.55 MHz 18 nm / 33 km 272.43° 272.68° - 72 ft / 22 m (AMSL)
28 Glidescope RL 109.55 MHz 10 nm / 19 km 272.44° 272.68° 3.10° 108 ft / 33 m (AMSL)
28 DME RL 109.55 MHz 18 nm / 33 km - - - 66 ft / 20 m (AMSL)